Ye Chi — VRFV6 — position and weather

sailwx.info

Track history (hours):
 
Tides and Currents Weather Stations Pressure Air Temp Water Temp Dewpoint Dewpoint Depression Visibility Wind Speed Wind Dir Waves Ship Positions

Ye Chi

Last reported at 2017-May-25 04:54 UTC. Time now 2017-May-25 05:15 UTC.
Position N 01°16' E 103°41'.

Length 186 m; draft 10 m.

Type: Tanker. MMSI: 477621300.

Date/timePositionNaut miles runAvg speedWind from/ knotsBaromVisibWave heightAir tempDewpointWater temp
2017-May-25 04:54N 01°16' E 103°41'0 0.0
2017-May-25 03:54N 01°16' E 103°41'0 0.0
2017-May-25 03:30N 01°16' E 103°41'0 0.0
2017-May-25 02:54N 01°16' E 103°41'0 0.0
2017-May-25 02:15N 01°16' E 103°41'0 0.0
2017-May-25 01:48N 01°16' E 103°41'0 0.0
2017-May-25 01:27N 01°16' E 103°41'0 0.0
2017-May-25 00:51N 01°16' E 103°41'0 0.0
2017-May-25 00:18N 01°16' E 103°41'0 0.1
2017-May-24 23:51N 01°16' E 103°41'0 0.1
2017-May-24 23:18N 01°16' E 103°41'0 0.0
2017-May-24 22:48N 01°16' E 103°41'0 0.0
2017-May-24 22:30N 01°16' E 103°41'0 0.0
2017-May-24 21:51N 01°16' E 103°41'0 0.0
2017-May-24 21:18N 01°16' E 103°41'0 0.0
2017-May-24 20:51N 01°16' E 103°41'0 0.0
2017-May-24 20:24N 01°16' E 103°41'0 0.0
2017-May-24 19:51N 01°16' E 103°41'0 0.0
2017-May-24 19:24N 01°16' E 103°41'0 0.0
2017-May-24 18:51N 01°16' E 103°41'0 0.0
2017-May-24 18:30N 01°16' E 103°41'0 0.0
2017-May-24 17:51N 01°16' E 103°41'0 0.0
2017-May-24 17:30N 01°16' E 103°41'1 2.4
2017-May-24 17:00N 01°15' E 103°42'2 3.7
2017-May-24 16:30N 01°15' E 103°44'4 7.2
2017-May-24 16:00N 01°15' E 103°47'2 3.3
2017-May-24 15:30N 01°13' E 103°48'0 0.3
2017-May-24 14:56N 01°13' E 103°48'0 0.1
2017-May-24 14:20N 01°13' E 103°48'0 0.0
2017-May-24 13:26N 01°13' E 103°48'0 0.0
2017-May-24 12:50N 01°13' E 103°48'0 0.0
2017-May-24 12:26N 01°13' E 103°48'0 0.0
2017-May-24 11:56N 01°13' E 103°48'0 0.0
2017-May-24 11:29N 01°13' E 103°48'0 0.1
2017-May-24 10:47N 01°13' E 103°48'0 0.0
2017-May-24 10:14N 01°13' E 103°48'0 0.1
2017-May-24 09:50N 01°13' E 103°48'0 0.1
2017-May-24 09:29N 01°13' E 103°48'0 0.2
2017-May-24 08:50N 01°13' E 103°48'0 0.1
2017-May-24 07:35N 01°13' E 103°48'0 0.1
2017-May-24 07:29N 01°13' E 103°48'0 0.0
2017-May-24 06:59N 01°13' E 103°48'0 0.0
2017-May-24 06:26N 01°13' E 103°48'0 0.0
2017-May-24 05:56N 01°13' E 103°48'0 0.0
2017-May-24 05:29N 01°13' E 103°48'0 0.0
2017-May-24 04:59N 01°13' E 103°48'0 0.0
2017-May-24 04:23N 01°13' E 103°48'0 0.0
2017-May-24 02:56N 01°13' E 103°48'0 0.1
2017-May-24 01:47N 01°13' E 103°48'0 0.2
2017-May-24 00:41N 01°13' E 103°48'0 0.0
2017-May-24 00:17N 01°13' E 103°48'0 0.2
2017-May-23 23:56N 01°13' E 103°48'0 0.1
2017-May-23 22:38N 01°13' E 103°48'0 0.2
2017-May-23 21:47N 01°13' E 103°48'0 0.1
2017-May-23 20:26N 01°13' E 103°48'0 0.0
2017-May-23 19:17N 01°13' E 103°48'0 0.0
2017-May-23 18:59N 01°13' E 103°48'0 0.0
2017-May-23 18:26N 01°13' E 103°48'0 0.0
2017-May-23 17:53N 01°13' E 103°48'0 0.0
2017-May-23 17:29N 01°13' E 103°48'0 0.0
2017-May-23 16:56N 01°13' E 103°48'0 0.0
2017-May-23 16:23N 01°13' E 103°48'0 0.0
2017-May-23 15:53N 01°13' E 103°48'0 0.0
2017-May-23 15:26N 01°13' E 103°48'0 0.3
2017-May-23 14:56N 01°13' E 103°48'2 4.0
2017-May-23 14:30N 01°13' E 103°50'9 8.5
2017-May-23 13:29N 01°16' E 103°58'2 4.3
2017-May-23 12:58N 01°16' E 103°60'  
2017-May-17 16:55N 22°19' E 119°55'511.2
2017-May-17 16:30N 22°23' E 119°54'611.3
2017-May-17 16:00N 22°29' E 119°54'611.6
2017-May-17 15:30N 22°35' E 119°55'611.7
2017-May-17 15:00N 22°41' E 119°55'611.4
2017-May-17 14:30N 22°46' E 119°56'  
2017-May-15 06:49N 32°48' E 123°10'311.0
2017-May-15 06:30N 32°51' E 123°10'811.2
2017-May-15 05:47N 32°59' E 123°10'  
Track history (hours):
 
Tides and Currents Weather Stations Pressure Air Temp Water Temp Dewpoint Dewpoint Depression Visibility Wind Speed Wind Dir Waves Ship Positions

Ye Chi

Last reported at 2017-May-25 04:54 UTC. Time now 2017-May-25 05:15 UTC.
Position N 01°16' E 103°41'.

Length 186 m; draft 10 m.

Type: Tanker. MMSI: 477621300.

Date/timePositionNaut miles runAvg speedWind from/ knotsBaromVisibWave heightAir tempDewpointWater temp
2017-May-25 04:54N 01°16' E 103°41'0 0.0
2017-May-25 03:54N 01°16' E 103°41'0 0.0
2017-May-25 03:30N 01°16' E 103°41'0 0.0
2017-May-25 02:54N 01°16' E 103°41'0 0.0
2017-May-25 02:15N 01°16' E 103°41'0 0.0
2017-May-25 01:48N 01°16' E 103°41'0 0.0
2017-May-25 01:27N 01°16' E 103°41'0 0.0
2017-May-25 00:51N 01°16' E 103°41'0 0.0
2017-May-25 00:18N 01°16' E 103°41'0 0.1
2017-May-24 23:51N 01°16' E 103°41'0 0.1
2017-May-24 23:18N 01°16' E 103°41'0 0.0
2017-May-24 22:48N 01°16' E 103°41'0 0.0
2017-May-24 22:30N 01°16' E 103°41'0 0.0
2017-May-24 21:51N 01°16' E 103°41'0 0.0
2017-May-24 21:18N 01°16' E 103°41'0 0.0
2017-May-24 20:51N 01°16' E 103°41'0 0.0
2017-May-24 20:24N 01°16' E 103°41'0 0.0
2017-May-24 19:51N 01°16' E 103°41'0 0.0
2017-May-24 19:24N 01°16' E 103°41'0 0.0
2017-May-24 18:51N 01°16' E 103°41'0 0.0
2017-May-24 18:30N 01°16' E 103°41'0 0.0
2017-May-24 17:51N 01°16' E 103°41'0 0.0
2017-May-24 17:30N 01°16' E 103°41'1 2.4
2017-May-24 17:00N 01°15' E 103°42'2 3.7
2017-May-24 16:30N 01°15' E 103°44'4 7.2
2017-May-24 16:00N 01°15' E 103°47'2 3.3
2017-May-24 15:30N 01°13' E 103°48'0 0.3
2017-May-24 14:56N 01°13' E 103°48'0 0.1
2017-May-24 14:20N 01°13' E 103°48'0 0.0
2017-May-24 13:26N 01°13' E 103°48'0 0.0
2017-May-24 12:50N 01°13' E 103°48'0 0.0
2017-May-24 12:26N 01°13' E 103°48'0 0.0
2017-May-24 11:56N 01°13' E 103°48'0 0.0
2017-May-24 11:29N 01°13' E 103°48'0 0.1
2017-May-24 10:47N 01°13' E 103°48'0 0.0
2017-May-24 10:14N 01°13' E 103°48'0 0.1
2017-May-24 09:50N 01°13' E 103°48'0 0.1
2017-May-24 09:29N 01°13' E 103°48'0 0.2
2017-May-24 08:50N 01°13' E 103°48'0 0.1
2017-May-24 07:35N 01°13' E 103°48'0 0.1
2017-May-24 07:29N 01°13' E 103°48'0 0.0
2017-May-24 06:59N 01°13' E 103°48'0 0.0
2017-May-24 06:26N 01°13' E 103°48'0 0.0
2017-May-24 05:56N 01°13' E 103°48'0 0.0
2017-May-24 05:29N 01°13' E 103°48'0 0.0
2017-May-24 04:59N 01°13' E 103°48'0 0.0
2017-May-24 04:23N 01°13' E 103°48'0 0.0
2017-May-24 02:56N 01°13' E 103°48'0 0.1
2017-May-24 01:47N 01°13' E 103°48'0 0.2
2017-May-24 00:41N 01°13' E 103°48'0 0.0
2017-May-24 00:17N 01°13' E 103°48'0 0.2
2017-May-23 23:56N 01°13' E 103°48'0 0.1
2017-May-23 22:38N 01°13' E 103°48'0 0.2
2017-May-23 21:47N 01°13' E 103°48'0 0.1
2017-May-23 20:26N 01°13' E 103°48'0 0.0
2017-May-23 19:17N 01°13' E 103°48'0 0.0
2017-May-23 18:59N 01°13' E 103°48'0 0.0
2017-May-23 18:26N 01°13' E 103°48'0 0.0
2017-May-23 17:53N 01°13' E 103°48'0 0.0
2017-May-23 17:29N 01°13' E 103°48'0 0.0
2017-May-23 16:56N 01°13' E 103°48'0 0.0
2017-May-23 16:23N 01°13' E 103°48'0 0.0
2017-May-23 15:53N 01°13' E 103°48'0 0.0
2017-May-23 15:26N 01°13' E 103°48'0 0.3
2017-May-23 14:56N 01°13' E 103°48'2 4.0
2017-May-23 14:30N 01°13' E 103°50'9 8.5
2017-May-23 13:29N 01°16' E 103°58'2 4.3
2017-May-23 12:58N 01°16' E 103°60'  
2017-May-17 16:55N 22°19' E 119°55'511.2
2017-May-17 16:30N 22°23' E 119°54'611.3
2017-May-17 16:00N 22°29' E 119°54'611.6
2017-May-17 15:30N 22°35' E 119°55'611.7
2017-May-17 15:00N 22°41' E 119°55'611.4
2017-May-17 14:30N 22°46' E 119°56'  
2017-May-15 06:49N 32°48' E 123°10'311.0
2017-May-15 06:30N 32°51' E 123°10'811.2
2017-May-15 05:47N 32°59' E 123°10'  

Dump ship's entire track history